Kuchera_Ratio
0.0 0.0 0.0 0.0 0.0 0.0 0.0 0.0 0.0 0.0 0.0 0.0 0.0 0.0 0.0 0.0 0.0 0.0 0.0 0.0 0.0 0.0
0.0 0.0 0.0 0.0 0.0 0.0 0.0 0.0 0.0 0.0 0.0 0.0 0.0 0.0 0.0 0.0 0.0 0.0 0.0 0.0 0.0 0.0
0.0 0.0 0.0 0.0 0.0 0.0 0.0 0.0 0.0 0.0 0.0 0.0 0.0 0.0 0.0 0.0 0.0 0.0 0.0 0.0 0.0 0.0
0.0 0.0 0.0 0.0 0.0 0.0 0.0 0.0 0.0 0.0 0.0 0.0 0.0 0.0 0.0 0.0 0.0 0.0 0.0 0.0 0.0 0.0
0.0 0.0 0.0 0.0 0.0 0.0 0.0 0.0 0.0 0.0 0.0 0.0 0.0 0.0 0.0 0.0 0.0 0.3 1.3 1.1 0.7 1.3
0.0 0.0 0.0 0.0 0.0 0.0 0.0 0.0 0.0 0.0 0.0 0.0 0.0 0.0 0.0 0.1 1.1 1.5 2.1 2.1 2.5 2.9
0.0 0.0 0.0 0.0 0.0 0.0 0.0 0.0 0.0 0.0 0.0 0.0 0.0 0.0 0.3 0.5 1.3 1.9 2.3 3.1 3.1 2.9
0.0 0.0 0.0 0.0 0.0 0.0 0.0 0.0 0.0 0.0 0.0 0.0 0.0 0.0 0.7 1.1 1.3 2.3 3.1 3.1 2.9 2.9
0.0 0.0 0.0 0.0 0.0 0.0 0.0 0.0 0.0 0.0 0.0 0.1 0.0 5.1 5.1 4.1 1.7 2.5 3.3 4.1 3.1 2.3
0.0 0.0 0.0 0.0 0.0 0.0 0.0 0.0 0.0 0.0 0.3 0.9 0.5 5.1 5.5 6.3 1.5 2.9 3.5 3.5 3.5 3.5
0.0 0.0 0.0 0.0 0.0 0.0 0.0 0.0 0.0 0.7 0.9 0.5 1.3 5.7 5.9 6.5 1.9 2.5 3.1 3.3 3.3 4.1
0.0 0.0 0.0 0.0 0.0 0.0 0.0 0.0 0.7 0.5 1.5 2.1 2.1 6.7 6.5 4.9 1.9 3.1 3.3 2.7 2.9 4.3
0.0 0.0 0.0 0.0 0.0 0.0 0.0 0.3 0.0 2.3 1.5 6.7 2.9 7.5 6.9 5.3 1.7 4.1 4.1 2.7 2.9 7.3
0.0 0.0 0.0 0.0 0.0 0.0 0.1 1.1 1.9 2.5 1.3 2.3 3.9 3.5 7.7 6.9 3.3 4.7 5.7 5.5 5.5 4.5